DW5993 Weather Reports


time (UTC)temp
F
wind
direction
speed
knots
gust
knots
rain 1hr
in
rain 24hr
in
rain mn
in
humidity
%
barometer
mb
20220812190755 87 135 1.7 1.7 0.00 0.00 0.00 34 1023.7
20220812185735 86 0 0.9 0.9 0.00 0.00 0.00 35 1023.8
20220812184735 90 68 0.9 1.7 0.00 0.00 0.00 33 1024.7
20220812183715 87 0 0.9 0.9 0.00 0.00 0.00 34 1024.8
20220812182735 87 135 0.9 1.7 0.00 0.00 0.00 35 1024.9
20220812181735 87 293 2.6 4.3 0.00 0.00 0.00 34 1024.7
20220812180715 88 113 1.7 3.5 0.00 0.00 0.00 34 1024.9
20220812175735 85 0 1.7 3.5 0.00 0.00 0.00 36 1024.6
20220812173715 86 45 1.7 3.5 0.00 0.00 0.00 35 1025.2
20220812172735 85 68 2.6 4.3 0.00 0.00 0.00 37 1025.1
20220812171816 84 113 0.9 1.7 0.00 0.00 0.00 38 1025.7
20220812170715 84 135 2.6 3.5 0.00 0.00 0.00 37 1026.1
20220812165715 84 90 0.9 1.7 0.00 0.00 0.00 38 1026.5
20220812164715 83 0 0.9 1.7 0.00 0.00 0.00 37 1027.0
20220812163755 83 68 0.9 1.7 0.00 0.00 0.00 38 1026.7
20220812162715 82 68 0.9 1.7 0.00 0.00 0.00 39 1027.2
20220812161715 81 135 0.9 1.7 0.00 0.00 0.00 40 1026.7
20220812155735 80 135 0.9 1.7 0.00 0.00 0.00 42 1027.0
20220812154715 79 68 0.9 1.7 0.00 0.00 0.00 41 1026.6
20220812153735 79 113 2.6 2.6 0.00 0.00 0.00 43 1026.7
20220812152755 78 135 1.7 2.6 0.00 0.00 0.00 42 1026.6
20220812151735 78 68 0.9 1.7 0.00 0.00 0.00 42 1026.3
20220812150715 77 180 0.9 1.7 0.00 0.00 0.00 43 1025.9
20220812145855 77 180 0.9 1.7 0.00 0.00 0.00 42 1026.0
20220812144755 77 180 1.7 1.7 0.00 0.00 0.00 42 1025.6
20220812143737 75 180 0.9 0.9 0.00 0.00 0.00 45 1025.3
20220812142835 74 180 0.9 1.7 0.00 0.00 0.00 52 1025.4
20220812141735 73 0.0 0.9 0.00 0.00 0.00 54 1025.4
20220812140716 72 0.0 0.0 0.00 0.00 0.00 55 1024.9
20220812135715 71 180 0.9 1.7 0.00 0.00 0.00 54 1024.9
20220812134717 70 225 0.9 1.7 0.00 0.00 0.00 58 1024.9
20220812133817 69 225 0.9 0.9 0.00 0.00 0.00 58 1024.7
20220812132717 65 45 0.9 1.7 0.00 0.00 0.00 68 1024.1
20220812131735 65 0.0 0.0 0.00 0.00 0.00 67 1024.2
20220812130715 64 45 0.9 1.7 0.00 0.00 0.00 68 1024.2
20220812125816 64 0.0 0.0 0.00 0.00 0.00 66 1024.1
20220812124735 64 0.0 0.9 0.00 0.00 0.00 65 1024.4
20220812123818 64 0.0 0.9 0.00 0.00 0.00 63 1024.7
20220812122735 64 0.0 0.0 0.00 0.00 0.00 62 1024.9
20220812120715 65 45 0.9 1.7 0.00 0.00 0.00 62 1024.7
20220812114835 64 0.0 0.9 0.00 0.00 0.00 59 1024.0
20220812113737 64 45 0.9 0.9 0.00 0.00 0.00 61 1023.8
20220812112858 64 0.0 0.0 0.00 0.00 0.00 60 1023.4
20220812111837 64 0.0 0.9 0.00 0.00 0.00 61 1023.1
20220812110717 65 45 0.9 1.7 0.00 0.00 0.00 60 1023.2
20220812105837 65 0.0 0.9 0.00 0.00 0.00 60 1023.2
20220812103737 65 0.0 0.0 0.00 0.00 0.00 59 1023.8
20220812102717 65 0.0 0.0 0.00 0.00 0.00 58 1023.7
20220812101717 65 0.0 0.0 0.00 0.00 0.00 58 1023.8
20220812100737 65 0.0 0.0 0.00 0.00 0.00 59 1024.0
20220812094737 66 0.0 0.0 0.00 0.00 0.00 57 1023.9
20220812093737 66 45 0.9 0.9 0.00 0.00 0.00 56 1023.7
20220812092717 66 0.0 0.9 0.00 0.00 0.00 56 1023.9
20220812091717 66 45 0.9 1.7 0.00 0.00 0.00 56 1023.6
20220812084857 68 0.0 0.9 0.00 0.00 0.00 53 1023.9
20220812083738 69 0.0 0.0 0.00 0.00 0.00 51 1024.1
20220812081717 70 0.0 0.0 0.00 0.00 0.00 48 1023.9
20220812080717 72 0.0 0.9 0.00 0.00 0.00 47 1023.9
20220812075817 74 0 0.9 1.7 0.00 0.00 0.00 43 1024.1
20220812074717 75 293 1.7 4.3 0.00 0.00 0.00 40 1024.4
20220812073837 75 315 2.6 5.2 0.00 0.00 0.00 40 1024.4
20220812072837 77 0 0.9 0.9 0.00 0.00 0.00 37 1024.5
20220812071737 74 270 1.7 4.3 0.00 0.00 0.00 41 1023.5
20220812070737 70 23 0.9 1.7 0.00 0.00 0.00 49 1023.1
20220812065757 71 0.0 0.9 0.00 0.00 0.00 50 1023.4
20220812064837 71 0.0 0.0 0.00 0.00 0.00 49 1023.5
20220812063837 73 23 0.9 1.7 0.00 0.00 0.00 47 1023.5
20220812062737 73 203 0.9 3.5 0.00 0.00 0.00 42 1023.5
20220812061817 71 45 0.9 1.7 0.00 0.00 0.00 50 1023.5
20220812060757 71 0.0 0.9 0.00 0.00 0.00 50 1023.2
20220812055836 71 0.0 0.0 0.00 0.00 0.00 48 1023.2
20220812054755 72 0.0 0.0 0.00 0.00 0.00 48 1023.3
20220812053755 73 0.0 0.0 0.00 0.00 0.00 47 1023.1
20220812052715 73 0.0 0.0 0.00 0.00 0.00 45 1023.0
20220812051735 75 45 0.9 0.9 0.00 0.00 0.00 43 1022.8
20220812050855 76 45 0.9 1.7 0.00 0.00 0.00 42 1023.0
20220812045715 78 45 0.9 1.7 0.00 0.00 0.00 37 1022.8
20220812044715 81 45 0.9 1.7 0.00 0.00 0.00 33 1023.0
20220812043835 81 0 2.6 3.5 0.00 0.00 0.00 31 1022.9
20220812042715 82 293 2.6 7.0 0.00 0.00 0.00 31 1022.9
20220812041835 82 270 3.5 4.3 0.00 0.00 0.00 32 1022.6
20220812040735 82 270 3.5 4.3 0.00 0.00 0.00 32 1022.6
20220812035755 82 270 2.6 6.1 0.00 0.00 0.00 33 1022.6
20220812034815 82 315 1.7 2.6 0.00 0.00 0.00 34 1022.5
20220812033735 82 338 1.7 2.6 0.00 0.00 0.00 35 1022.5
20220812032718 82 270 0.9 1.7 0.00 0.00 0.00 35 1022.1
20220812031735 81 23 0.9 2.6 0.00 0.00 0.00 37 1021.8
20220812025715 80 0.0 0.0 0.00 0.00 0.00 38 1021.6
20220812024835 78 158 1.7 7.0 0.00 0.00 0.00 42 1021.3
20220812023715 78 338 0.9 0.9 0.00 0.00 0.00 46 1020.9
20220812022735 79 338 0.9 0.9 0.00 0.00 0.00 43 1020.2
20220812021815 79 338 0.9 1.7 0.00 0.00 0.00 46 1020.1
20220812020715 79 0.0 0.9 0.00 0.00 0.00 46 1020.1
20220812015715 80 0.0 0.0 0.00 0.00 0.00 46 1020.0
20220812014755 81 0.0 0.0 0.00 0.00 0.00 46 1019.7
20220812013836 81 0.0 0.9 0.00 0.00 0.00 45 1019.4
20220812012718 82 0.0 0.0 0.00 0.00 0.00 44 1019.4
20220812011715 82 0.0 0.0 0.00 0.00 0.00 43 1019.0
20220812005736 83 338 0.9 0.9 0.00 0.00 0.00 43 1019.1
20220812004735 84 0.0 0.0 0.00 0.00 0.00 42 1019.2
20220812003715 86 0.0 0.0 0.00 0.00 0.00 40 1019.6
20220812002815 88 0.0 0.9 0.00 0.00 0.00 37 1019.9
20220812001715 87 0.0 0.9 0.00 0.00 0.00 42 1020.1
20220812000835 87 0.0 0.0 0.00 0.00 0.00 41 1020.1
20220811235715 89 0.0 0.9 0.00 0.00 0.00 41 1020.6
20220811234755 88 0.0 0.0 0.00 0.00 0.00 39 1020.5
20220811233715 88 0.0 0.9 0.00 0.00 0.00 38 1020.5
20220811232715 89 0.0 0.9 0.00 0.00 0.00 36 1020.6
20220811231756 88 0.0 0.9 0.00 0.00 0.00 37 1020.8
20220811230715 90 0.0 0.9 0.00 0.00 0.00 34 1020.8
20220811224836 90 0 0.9 1.7 0.00 0.00 0.00 30 1021.0
20220811223815 92 0.0 0.9 0.00 0.00 0.00 31 1021.4
20220811222758 92 135 0.9 0.9 0.00 0.00 0.00 28 1021.5
20220811221735 91 0.0 0.9 0.00 0.00 0.00 27 1021.5
20220811220735 91 113 0.9 1.7 0.00 0.00 0.00 29 1021.7
20220811215735 92 0.0 0.9 0.00 0.00 0.00 29 1021.8
20220811214855 93 135 0.9 1.7 0.00 0.00 0.00 28 1022.2
20220811213735 92 68 1.7 3.5 0.00 0.00 0.00 27 1022.3
20220811212735 94 0.0 0.9 0.00 0.00 0.00 28 1022.9
20220811211735 92 180 0.9 1.7 0.00 0.00 0.00 29 1022.5
20220811210735 91 135 3.5 6.1 0.00 0.00 0.00 28 1022.0
20220811205715 91 158 3.5 4.3 0.00 0.00 0.00 28 1022.4
20220811204715 92 113 0.9 1.7 0.00 0.00 0.00 30 1022.7
20220811203715 94 90 0.9 1.7 0.00 0.00 0.00 32 1023.4
20220811202715 93 315 0.9 0.9 0.00 0.00 0.00 34 1023.7
20220811201835 92 68 0.9 1.7 0.00 0.00 0.00 33 1023.4
20220811195835 92 113 0.9 1.7 0.00 0.00 0.00 32 1023.7
20220811194755 91 315 1.7 4.3 0.00 0.00 0.00 33 1023.9
20220811193755 91 113 0.9 1.7 0.00 0.00 0.00 33 1024.0
20220811192715 91 0 1.7 3.5 0.00 0.00 0.00 31 1024.1